Location: Unspecified
(0.0000°N, 0.0000°E)
Time: 19:43:26
(UTC+00:00)

Amsat-Oscar-8 - Pass Details

Date: 10 June 2023
Orbit: 890 x 901 km, 99.2° (Epoch: 24 September)

Event Time Altitude Azimuth Distance (km) Brightness Sun altitude
Rises 02:59:40 0° 17° (NNE) 3,496 12.4 -40.6°
Reaches altitude 10° 03:02:04 10° 19° (NNE) 2,560 11.6 -40.0°
Enters shadow 03:04:05 23° 22° (NNE) 1,801 10.7 -39.6°
